Вернуться в каталог

STARLINK-38010

АктивенСвязьSSO
NORAD 69727·PAYLOAD·🇺🇸 United States

Запущен Jun 28, 2026 с Vandenberg Space Force Base

Loading…

Ближайшие Пролёты (ближайшие 24 часа)

TLE

СвежийSource: CelesTrak SupGP

Эпоха: Sep 15, 2026, 04:08 UTC

1 69727C 26147Z   26258.17270833 -.00054919  00000+0 -36944-3 0  2581
2 69727  97.2841 297.5901 0001015  92.2688 236.7006 15.75188906    14

Отслеживайте STARLINK-38010 в реальном времени с AllMySat

Download on the App Store